[[{"header":{"parameterUnit":"m.s-1","parameterCategory":1,"la1":30.2991,"la2":30.254,"lo1":-89.0895,"lo2":-89.0444,"dy":0.0017,"dx":0.0017,"nx":28,"ny":28,"refTime":"2024-09-04T09:00:00:Z","depth":0,"parameterNumber":2,"parameterNumberName":"U-component_of_WINDS"},"data":[0,0,0,0,0,0,0,0,0,0,0,0,0,0,0,0,0,0,0,0,0,0,0,0,0,0,0,0,0,0,0,0,0,0,0,0,0,0,0,0,0,0,0,0,0,0,0,0,0,0,0,0,0,0,0,0,0,0,-5.6295,-5.6295,0,-5.6239,-5.6239,-5.6238,-5.6052,-5.6048,-5.6044,-5.604,-5.5986,-5.5988,-5.599,0,0,0,0,0,0,0,0,0,0,0,0,0,-5.6247,-5.6249,-5.6296,-5.6295,-5.6294,-5.6239,-5.6239,-5.6238,-5.6053,-5.6048,-5.6043,-5.6038,-5.5985,-5.5988,-5.599,0,0,0,0,0,0,0,0,0,0,0,0,0,-5.6237,-5.6249,-5.6296,-5.6195,-5.6186,-5.624,-5.6239,-5.6238,-5.6054,-5.6048,-5.6041,-5.6036,-5.5984,-5.5987,-5.5991,-5.6138,0,0,-5.6002,-5.6004,0,0,0,0,0,0,0,0,-5.6238,-5.6239,-5.6211,-5.6202,-5.6192,-5.6146,-5.6201,-5.6204,-5.6056,-5.6104,-5.604,-5.6033,-5.6044,-5.6043,-5.6046,-5.6136,-5.6133,-5.6002,-5.6005,-5.6006,-5.6007,0,0,0,0,0,0,0,-5.6239,-5.6241,-5.6273,-5.6211,-5.6199,-5.6154,-5.6146,-5.6201,-5.611,-5.6099,-5.6086,-5.6082,-5.6038,-5.6043,-5.6043,-5.6133,-5.6002,-5.6005,-5.6008,-5.6009,-5.6342,-5.6348,0,0,0,0,0,0,-5.6254,-5.6243,-5.6275,-5.6271,-5.62,-5.616,-5.6151,-5.6167,-5.6109,-5.6094,-5.6087,-5.6073,-5.604,-5.6039,-5.6041,-5.6209,-5.6006,-5.6009,-5.6012,-5.6335,-5.6344,-5.6351,0,0,0,0,0,0,-5.6253,-5.6258,-5.6277,-5.6253,-5.6252,-5.6168,-5.6187,-5.6169,-5.6174,-5.6099,-5.6082,-5.6108,-5.6035,-5.6035,-5.6115,-5.6205,-5.6011,-5.6014,-5.6328,-5.6338,-5.6347,-5.6548,0,0,0,0,0,0,-5.6253,-5.6259,-5.6313,-5.6256,-5.6254,-5.6352,-5.6193,-5.6173,-5.618,-5.6162,-5.6115,-5.6101,-5.603,-5.6111,-5.6119,-5.6206,-5.6017,-5.6319,-5.6332,-5.6344,-5.6533,-5.6564,-5.659,0,0,0,0,0,-5.6251,-5.6372,-5.6317,-5.6322,-5.632,-5.6358,-5.6357,-5.6271,-5.6188,-5.6242,-5.6195,-5.6103,-5.6194,-5.6121,-5.6128,-5.6218,-5.6313,-5.6329,-5.6343,-5.652,-5.6558,-5.6589,0,0,0,0,0,0,-5.6442,-5.6363,-5.63,-5.6406,-5.639,-5.6326,-5.6391,-5.6314,-5.6321,-5.6304,-5.6198,-5.619,-5.6285,-5.6259,-5.6179,-5.6358,-5.6238,-5.6256,-5.6371,-5.6406,-5.6434,-5.6437,-5.602,0,0,0,0,0,-5.6497,-5.6533,-5.6462,-5.6562,-5.6558,-5.6477,-5.649,-5.6426,-5.6405,-5.6398,-5.6356,-5.6341,-5.6366,-5.6385,-5.6404,-5.653,-5.6517,-5.6595,-5.6624,-5.6647,-5.6663,-5.6728,-5.6762,-5.64,-5.64,-5.64,0,0,-5.6609,-5.657,-5.66,-5.66,-5.658,-5.6621,-5.6472,-5.6522,-5.6552,-5.6406,-5.6478,-5.6448,-5.6424,-5.6528,-5.6571,-5.651,-5.6761,-5.6667,-5.6686,-5.6688,-5.6747,-5.6782,-5.6812,-5.641,-5.6408,-5.6407,0,0,-5.6835,-5.6809,-5.689,-5.6874,-5.6845,-5.6791,-5.6811,-5.676,-5.6734,-5.6805,-5.6697,-5.6732,-5.6778,-5.6765,-5.6765,-5.699,-5.6906,-5.7,-5.7147,-5.7213,-5.7241,-5.7266,-5.7346,-5.7376,-5.7016,-5.7017,-5.7017,0,-5.6978,-5.7034,-5.6942,-5.6998,-5.7002,-5.6873,-5.6954,-5.6943,-5.6924,-5.693,-5.6861,-5.6916,-5.6891,-5.6991,-5.7046,-5.705,-5.707,-5.7003,-5.7244,-5.7268,-5.729,-5.7365,-5.7396,-5.7028,-5.7027,-5.7025,-5.7024,0,-5.7212,-5.7254,-5.7323,-5.7306,-5.7318,-5.7388,-5.7307,-5.733,-5.7267,-5.7221,-5.7296,-5.7262,-5.7272,-5.7292,-5.723,-5.7383,-5.7346,-5.7263,-5.714,-5.7338,-5.7406,-5.7435,-5.7044,-5.704,-5.7037,-5.7034,0,0,-5.7553,-5.7486,-5.7513,-5.7505,-5.7466,-5.7496,-5.7562,-5.7571,-5.7594,-5.7586,-5.7638,-5.7681,-5.7604,-5.7604,-5.754,-5.7598,-5.7779,-5.7507,-5.7505,-5.7558,-5.7946,-5.8008,-5.8043,-5.7724,-5.7729,-5.7733,-5.7948,0,-5.7766,-5.7871,-5.7791,-5.791,-5.7948,-5.7828,-5.7884,-5.7868,-5.7828,-5.7855,-5.7811,-5.7843,-5.7739,-5.7739,-5.7791,-5.7746,-5.7855,-5.773,-5.7772,-5.7774,-5.7779,-5.8078,-5.8143,-5.8347,-5.7974,-5.7979,-5.7982,0,-5.8027,-5.8031,-5.8155,-5.8109,-5.8122,-5.8174,-5.8177,-5.8205,-5.8185,-5.8152,-5.8154,-5.8076,-5.8138,-5.802,-5.8104,-5.8021,-5.8034,-5.8015,-5.8021,-5.802,-5.7889,-5.8084,-5.841,-5.8441,-5.8024,-5.802,-5.8017,0,-5.8262,-5.8299,-5.8377,-5.8374,-5.8323,-5.8363,-5.8344,-5.8318,-5.8329,-5.8333,-5.834,-5.8352,-5.8359,-5.837,-5.8298,-5.8219,-5.8393,-5.8268,-5.8367,-5.8369,-5.8407,-5.8405,-5.8738,-5.8419,-5.8419,-5.8418,-5.8418,0,-5.8507,-5.8587,-5.8482,-5.853,-5.8617,-5.8526,-5.8616,-5.8584,-5.8563,-5.8604,-5.8502,-5.8543,-5.8446,-5.8477,-5.8422,-5.8501,-5.8505,-5.848,-5.8464,-5.8488,-5.8491,-5.8493,-5.8477,-5.8426,-5.8424,-5.8423,-5.8422,0,-5.8782,-5.8715,-5.8793,-5.874,-5.8728,-5.8795,-5.875,-5.8793,-5.8748,-5.8801,-5.8809,-5.8738,-5.877,-5.87,-5.8723,-5.8686,-5.8797,-5.876,-5.8804,-5.8792,-5.8894,-5.8885,-5.9239,-5.9281,-5.8938,-5.8941,-5.8944,0,-5.8942,-5.9001,-5.8954,-5.8974,-5.8961,-5.8995,-5.9006,-5.8921,-5.8937,-5.8921,-5.8967,-5.8991,-5.9004,-5.9063,-5.9014,-5.9031,-5.8992,-5.9115,-5.8994,-5.9017,-5.8992,-5.8989,-5.8995,-5.9139,-5.9144,-5.9147,-5.915,0,-5.9232,-5.9196,-5.9216,-5.9226,-5.9243,-5.9247,-5.9243,-5.9266,-5.9175,-5.92,-5.9231,-5.9243,-5.9266,-5.9292,-5.9299,-5.928,-5.9201,-5.9189,-5.9212,-5.9236,-5.9259,-5.9247,-5.887,-5.918,-5.9177,-5.9175,-5.9173,-5.9172,-5.9452,-5.9499,-5.9475,-5.9501,-5.949,-5.949,-5.9528,-5.9489,-5.9513,-5.9525,-5.9474,-5.9518,-5.9499,-5.9499,-5.949,-5.9524,-5.9468,-5.9503,-5.9511,-5.9521,-5.9537,-5.9256,-5.9525,-5.9524,-5.9523,-5.9523,-5.9522,0,-5.9735,-5.9714,-5.974,-5.9739,-5.9761,-5.9685,-5.9678,-5.9701,-5.9741,-5.973,-5.9746,-5.9784,-5.9809,-5.9764,-5.9782,-5.9818,-5.9782,-5.9825,-5.982,-5.9818,-5.9586,-5.9563,-5.9854,-5.9854,-5.9854,-5.9854,-5.9854,-5.9854,-5.9885,-5.9961,-5.9923,-5.9994,-5.9972,-6.0013,-6.0016,-6.0016,-6.0007,-6.0053,-6.0073,-6.0044,-6.002,-6.0035,-6.0056,-6.0042,-6.0053,-6.0109,-6.0083,-5.9866,-5.9834,-5.9803,-5.978,-6.0112,-6.0113,-6.0311,-6.0313,-6.0314]},{"header":{"parameterUnit":"m.s-1","parameterCategory":1,"la1":30.2991,"la2":30.254,"lo1":-89.0895,"lo2":-89.0444,"dy":0.0017,"dx":0.0017,"nx":28,"ny":28,"refTime":"2024-09-04T09:00:00:Z","depth":0,"parameterNumber":3,"parameterNumberName":"V-component_of_WINDS"},"data":[0,0,0,0,0,0,0,0,0,0,0,0,0,0,0,0,0,0,0,0,0,0,0,0,0,0,0,0,0,0,0,0,0,0,0,0,0,0,0,0,0,0,0,0,0,0,0,0,0,0,0,0,0,0,0,0,0,0,-0.2996,-0.2997,0,-0.3107,-0.3109,-0.311,-0.3248,-0.325,-0.3253,-0.3255,-0.3363,-0.3364,-0.3365,0,0,0,0,0,0,0,0,0,0,0,0,0,-0.2896,-0.2897,-0.2996,-0.2997,-0.2999,-0.3107,-0.3109,-0.311,-0.3248,-0.3251,-0.3253,-0.3256,-0.3363,-0.3364,-0.3365,0,0,0,0,0,0,0,0,0,0,0,0,0,-0.2966,-0.2898,-0.2996,-0.3081,-0.3089,-0.3107,-0.3109,-0.3111,-0.3247,-0.3251,-0.3254,-0.3257,-0.3363,-0.3364,-0.3365,-0.3307,0,0,-0.3369,-0.337,0,0,0,0,0,0,0,0,-0.2962,-0.297,-0.3067,-0.3075,-0.3085,-0.3168,-0.3114,-0.3176,-0.3246,-0.3187,-0.3255,-0.3259,-0.3295,-0.3302,-0.3316,-0.3312,-0.3317,-0.3369,-0.337,-0.3371,-0.3371,0,0,0,0,0,0,0,-0.2957,-0.2966,-0.304,-0.3068,-0.3079,-0.3111,-0.3125,-0.3126,-0.3221,-0.3193,-0.3203,-0.3214,-0.3301,-0.3314,-0.3319,-0.3318,-0.3369,-0.337,-0.3371,-0.3372,-0.3268,-0.3265,0,0,0,0,0,0,-0.294,-0.2961,-0.3036,-0.3043,-0.3031,-0.311,-0.3126,-0.3137,-0.3222,-0.3238,-0.3212,-0.3221,-0.331,-0.3318,-0.3324,-0.3258,-0.3371,-0.3372,-0.3372,-0.3272,-0.3267,-0.3264,0,0,0,0,0,0,-0.2938,-0.2946,-0.3032,-0.3005,-0.3018,-0.3108,-0.3121,-0.3138,-0.3152,-0.3236,-0.3253,-0.3208,-0.3313,-0.3322,-0.331,-0.3264,-0.3372,-0.3373,-0.3276,-0.327,-0.3266,-0.3127,0,0,0,0,0,0,-0.2934,-0.2944,-0.2924,-0.3004,-0.3019,-0.3017,-0.3118,-0.3138,-0.3154,-0.3167,-0.3237,-0.3252,-0.3317,-0.3307,-0.3311,-0.3267,-0.3374,-0.328,-0.3273,-0.3267,-0.3136,-0.3118,-0.3102,0,0,0,0,0,-0.293,-0.2881,-0.2923,-0.2931,-0.2997,-0.3015,-0.3023,-0.31,-0.315,-0.3129,-0.3183,-0.325,-0.3269,-0.3304,-0.331,-0.3266,-0.3283,-0.3275,-0.3268,-0.3144,-0.3121,-0.3103,0,0,0,0,0,0,-0.2792,-0.2893,-0.294,-0.2915,-0.2955,-0.3038,-0.3015,-0.3074,-0.31,-0.3111,-0.3203,-0.3218,-0.3193,-0.323,-0.3268,-0.3212,-0.3286,-0.3278,-0.3189,-0.3169,-0.3152,-0.3143,-0.3375,0,0,0,0,0,-0.2759,-0.2767,-0.2854,-0.2823,-0.2841,-0.2924,-0.2934,-0.299,-0.3035,-0.3052,-0.3105,-0.3144,-0.3159,-0.3167,-0.3185,-0.3143,-0.3158,-0.3115,-0.3098,-0.3084,-0.3075,-0.3052,-0.3033,-0.3238,-0.3238,-0.3238,0,0,-0.269,-0.2746,-0.2745,-0.2796,-0.2834,-0.2838,-0.2937,-0.2938,-0.294,-0.3052,-0.3043,-0.3083,-0.3133,-0.3104,-0.3094,-0.3133,-0.3023,-0.3074,-0.3062,-0.3061,-0.3042,-0.3023,-0.3005,-0.3233,-0.3233,-0.3234,0,0,-0.2566,-0.261,-0.2588,-0.2624,-0.268,-0.2735,-0.273,-0.2803,-0.2834,-0.2827,-0.291,-0.2914,-0.2938,-0.2969,-0.2988,-0.2873,-0.2934,-0.2877,-0.2786,-0.2763,-0.2746,-0.2733,-0.2688,-0.2671,-0.2869,-0.2868,-0.2868,0,-0.2472,-0.2483,-0.2569,-0.2563,-0.2582,-0.2684,-0.2661,-0.2691,-0.2749,-0.2758,-0.2802,-0.2832,-0.2873,-0.2852,-0.2824,-0.2837,-0.283,-0.2868,-0.2742,-0.2729,-0.2717,-0.2676,-0.2659,-0.2861,-0.2862,-0.2862,-0.2863,0,-0.2363,-0.2369,-0.2344,-0.2399,-0.2415,-0.24,-0.2481,-0.2487,-0.2541,-0.259,-0.258,-0.2633,-0.2662,-0.2662,-0.2715,-0.2647,-0.2669,-0.2726,-0.2801,-0.2689,-0.2651,-0.2636,-0.285,-0.2853,-0.2855,-0.2857,0,0,-0.2154,-0.2256,-0.2245,-0.227,-0.2339,-0.2343,-0.2332,-0.2362,-0.2364,-0.24,-0.2391,-0.2408,-0.2461,-0.2482,-0.2539,-0.2519,-0.242,-0.2578,-0.2581,-0.2544,-0.2344,-0.2298,-0.2278,-0.2462,-0.2459,-0.2457,-0.2339,0,-0.204,-0.2028,-0.2104,-0.207,-0.2075,-0.2172,-0.2161,-0.2201,-0.2247,-0.2255,-0.2306,-0.2315,-0.2386,-0.2399,-0.2384,-0.2435,-0.238,-0.2445,-0.245,-0.2449,-0.2431,-0.226,-0.2212,-0.2097,-0.2325,-0.2323,-0.2321,0,-0.1905,-0.1934,-0.1901,-0.197,-0.1974,-0.1964,-0.1996,-0.2004,-0.205,-0.2085,-0.2107,-0.2173,-0.2164,-0.2237,-0.2224,-0.2266,-0.2273,-0.2298,-0.2296,-0.2296,-0.2376,-0.2252,-0.2063,-0.2044,-0.2299,-0.2301,-0.2303,0,-0.1751,-0.1783,-0.1766,-0.1785,-0.1865,-0.1855,-0.1887,-0.1937,-0.1949,-0.1977,-0.1985,-0.2011,-0.2024,-0.2041,-0.211,-0.2158,-0.2087,-0.2167,-0.2112,-0.211,-0.2091,-0.209,-0.1896,-0.21,-0.2101,-0.2101,-0.2101,0,-0.1613,-0.1588,-0.1698,-0.1687,-0.1661,-0.1748,-0.1719,-0.1761,-0.1804,-0.1801,-0.1887,-0.1882,-0.1976,-0.198,-0.2035,-0.2013,-0.2019,-0.2044,-0.2058,-0.2035,-0.2031,-0.2038,-0.2046,-0.2097,-0.2098,-0.2098,-0.2099,0,-0.1436,-0.1509,-0.1497,-0.1574,-0.1592,-0.1569,-0.1634,-0.1626,-0.1677,-0.1672,-0.1676,-0.1756,-0.1766,-0.1838,-0.1864,-0.19,-0.1856,-0.1888,-0.1841,-0.185,-0.1789,-0.1792,-0.159,-0.1567,-0.1788,-0.1786,-0.1784,0,-0.1342,-0.1325,-0.14,-0.1405,-0.1433,-0.1441,-0.1454,-0.1538,-0.1547,-0.1597,-0.1582,-0.1599,-0.1617,-0.1627,-0.1686,-0.1705,-0.1735,-0.1663,-0.1739,-0.1714,-0.173,-0.1728,-0.1725,-0.1646,-0.1643,-0.1641,-0.1639,0,-0.1165,-0.1202,-0.1218,-0.1246,-0.1259,-0.1285,-0.1316,-0.1314,-0.1407,-0.1413,-0.1425,-0.1438,-0.1465,-0.1479,-0.1508,-0.154,-0.1602,-0.1615,-0.1603,-0.1577,-0.1548,-0.1559,-0.1793,-0.1619,-0.1621,-0.1622,-0.1623,-0.1624,-0.1024,-0.1012,-0.1063,-0.1077,-0.111,-0.1136,-0.1131,-0.1182,-0.1194,-0.1222,-0.1271,-0.1275,-0.1319,-0.1365,-0.139,-0.1393,-0.143,-0.1413,-0.1408,-0.1402,-0.1388,-0.1551,-0.1399,-0.1399,-0.14,-0.1401,-0.1401,0,-0.0849,-0.0886,-0.0899,-0.0939,-0.095,-0.1011,-0.1048,-0.1052,-0.1054,-0.1091,-0.1106,-0.1118,-0.1132,-0.1191,-0.1211,-0.1201,-0.123,-0.1203,-0.1202,-0.1208,-0.1355,-0.1362,-0.1179,-0.1179,-0.1179,-0.1179,-0.1179,-0.1179,-0.0759,-0.0741,-0.0783,-0.0781,-0.0819,-0.0823,-0.0838,-0.0862,-0.0891,-0.0901,-0.0913,-0.0953,-0.0997,-0.1021,-0.1035,-0.1052,-0.1053,-0.1015,-0.1041,-0.1177,-0.1198,-0.1218,-0.1225,-0.1016,-0.1016,-0.0894,-0.0893,-0.0892]}]]